Location: Unspecified
(0.0000°N, 0.0000°E)
Time: 23:49:29
(UTC+00:00)

Kosmos-2004 - Pass Details

Date: 23 May 2026
Orbit: 969 x 1012 km, 83.0° (Epoch: 6 June)

Event Time Altitude Azimuth Distance (km) Brightness Sun altitude
Exits shadow 03:17:13 25° 125° (SE) 1,846 7.6 -36.9°
Maximum altitude 03:19:16 31° 93° (E) 1,650 7.5 -36.4°
Drops below altitude 10° 03:24:37 10° 33° (NNE) 2,720 8.9 -35.2°
Sets 03:27:25 0° 23° (NNE) 3,671 9.6 -34.6°
